CW8593 Weather Reports


Display with metric or nautical units.
time (UTC)temp
F
wind
direction
speed
MPH
gust
MPH
rain 1hr
in
rain 24hr
in
rain mn
in
humidity
%
barometer
mb
20170529001109 68 280 0.0 4.0 0.00 0.00 0.00 67 1017.0
20170529000209 68 280 0.0 2.0 0.00 0.00 0.00 67 1017.1
20170528235309 69 280 1.0 2.0 0.00 0.00 0.00 67 1017.2
20170528234409 69 280 2.0 3.0 0.00 0.00 0.00 67 1017.2
20170528233509 69 278 2.0 5.0 0.00 0.00 0.00 67 1017.3
20170528232609 68 271 0.0 5.0 0.00 0.00 0.00 67 1017.4
20170528231709 68 269 1.0 4.0 0.00 0.00 0.00 67 1017.5
20170528230809 68 269 1.0 4.0 0.00 0.00 0.00 68 1017.6
20170528225909 67 269 0.0 4.0 0.00 0.00 0.00 68 1017.6
20170528225009 67 270 1.0 2.0 0.00 0.00 0.00 68 1017.7
20170528224109 67 269 0.0 3.0 0.00 0.00 0.00 68 1017.7
20170528223209 67 270 1.0 1.0 0.00 0.00 0.00 67 1017.8
20170528222309 67 269 1.0 3.0 0.00 0.00 0.00 67 1017.8
20170528221409 68 270 0.0 1.0 0.00 0.00 0.00 68 1017.8
20170528220509 68 269 0.0 2.0 0.00 0.00 0.00 67 1017.8
20170528215609 69 269 0.0 2.0 0.00 0.00 0.00 67 1017.8
20170528214709 69 0 0.0 0.0 0.00 0.00 0.00 67 1017.9
20170528213809 69 270 1.0 1.0 0.00 0.00 0.00 66 1017.9
20170528212909 69 268 1.0 4.0 0.00 0.00 0.00 66 1018.0
20170528212009 69 265 1.0 3.0 0.00 0.00 0.00 65 1018.0
20170528211109 69 265 1.0 3.0 0.00 0.00 0.00 66 1018.0
20170528210209 70 265 1.0 3.0 0.00 0.00 0.00 67 1018.0
20170528205309 70 265 1.0 2.0 0.00 0.00 0.00 68 1017.9
20170528204409 70 260 1.0 5.0 0.00 0.00 0.00 69 1017.9
20170528203509 70 249 1.0 3.0 0.00 0.00 0.00 69 1017.8
20170528202609 70 172 1.0 2.0 0.00 0.00 0.00 69 1017.8
20170528201709 70 172 1.0 3.0 0.00 0.00 0.00 69 1017.8
20170528200809 70 171 1.0 3.0 0.00 0.00 0.00 69 1017.7
20170528195909 71 164 0.0 3.0 0.00 0.00 0.00 69 1017.7
20170528195009 71 164 0.0 1.0 0.00 0.00 0.00 70 1017.6
20170528194109 71 0 0.0 0.0 0.00 0.00 0.00 71 1017.5
20170528193209 71 164 1.0 3.0 0.00 0.00 0.00 70 1017.4
20170528192309 71 164 1.0 4.0 0.00 0.00 0.00 70 1017.5
20170528191409 72 162 0.0 3.0 0.00 0.00 0.00 70 1017.5
20170528190509 72 157 1.0 4.0 0.00 0.00 0.00 70 1017.5
20170528185609 72 157 2.0 4.0 0.00 0.00 0.00 70 1017.5
20170528184709 73 157 1.0 6.0 0.00 0.00 0.00 69 1017.6
20170528183809 73 157 1.0 5.0 0.00 0.00 0.00 67 1017.5
20170528182909 73 156 1.0 5.0 0.00 0.00 0.00 66 1017.5
20170528182009 73 156 2.0 4.0 0.00 0.00 0.00 65 1017.5
20170528181109 73 156 2.0 5.0 0.00 0.00 0.00 64 1017.5
20170528180208 73 139 2.0 6.0 0.00 0.00 0.00 62 1017.5
20170528175309 73 120 3.0 8.0 0.00 0.00 0.00 63 1017.6
20170528174409 73 123 2.0 8.0 0.00 0.00 0.00 65 1017.5
20170528173508 74 118 3.0 8.0 0.00 0.00 0.00 64 1017.5
20170528172608 73 119 3.0 7.0 0.00 0.00 0.00 61 1017.5
20170528171708 74 126 3.0 7.0 0.00 0.00 0.00 58 1017.5
20170528170809 74 127 3.0 8.0 0.00 0.00 0.00 56 1017.6